TimeIST,TemperatureF,Dew PointF,Humidity,Sea Level PressureIn,VisibilityMPH,Wind Direction,Wind SpeedMPH,Gust SpeedMPH,PrecipitationIn,Events,Conditions,WindDirDegrees,DateUTC
1:00 AM,61,57,82,30.18,,ESE,8.9,,,,,110,2013-07-21 00:00:00
7:00 AM,57,57,100,30.14,2,ESE,8.9,,,,Mostly Cloudy,120,2013-07-21 06:00:00
7:00 AM,57.2,57.2,100,30.12,1.9,ESE,8.1,-,N/A,,Mostly Cloudy,120,2013-07-21 06:00:00
7:30 AM,59.0,57.2,94,30.12,2.5,SE,6.9,-,N/A,,Scattered Clouds,130,2013-07-21 06:30:00
8:00 AM,60.8,59.0,94,30.12,6.2,SE,5.8,-,N/A,,Scattered Clouds,130,2013-07-21 07:00:00
8:30 AM,60.8,59.0,94,30.12,6.2,ESE,8.1,-,N/A,,Scattered Clouds,120,2013-07-21 07:30:00
9:00 AM,62.6,59.0,88,30.12,6.2,ESE,8.1,-,N/A,,Mostly Cloudy,120,2013-07-21 08:00:00
9:30 AM,62.6,59.0,88,30.12,6.2,ESE,9.2,-,N/A,,Mostly Cloudy,120,2013-07-21 08:30:00
10:00 AM,64.4,60.8,88,30.09,6.2,ESE,10.4,-,N/A,,Mostly Cloudy,120,2013-07-21 09:00:00
10:30 AM,66.2,59.0,78,30.09,6.2,ESE,10.4,-,N/A,,Mostly Cloudy,110,2013-07-21 09:30:00
11:00 AM,66.2,60.8,83,30.09,6.2,ESE,10.4,-,N/A,,Mostly Cloudy,110,2013-07-21 10:00:00
11:30 AM,66.2,59.0,78,30.09,6.2,ESE,10.4,-,N/A,,Mostly Cloudy,110,2013-07-21 10:30:00
12:00 PM,68.0,59.0,73,30.09,6.2,ESE,13.8,-,N/A,,Overcast,110,2013-07-21 11:00:00
12:30 PM,66.2,59.0,78,30.09,6.2,ESE,11.5,-,N/A,,Overcast,110,2013-07-21 11:30:00
1:00 PM,67,60,70,30.09,12,East,11.2,,,,Overcast,100,2013-07-21 12:00:00
1:00 PM,68.0,59.0,73,30.09,6.2,East,11.5,-,N/A,,Overcast,100,2013-07-21 12:00:00
1:30 PM,68.0,59.0,73,30.09,6.2,ESE,12.7,-,N/A,,Mostly Cloudy,110,2013-07-21 12:30:00
2:00 PM,66.2,59.0,78,30.09,6.2,East,12.7,-,N/A,,Mostly Cloudy,90,2013-07-21 13:00:00
2:30 PM,68.0,59.0,73,30.09,6.2,East,11.5,-,N/A,,Overcast,100,2013-07-21 13:30:00
3:00 PM,68.0,59.0,73,30.06,6.2,ESE,13.8,-,N/A,,Overcast,110,2013-07-21 14:00:00
3:30 PM,68.0,59.0,73,30.06,6.2,East,11.5,-,N/A,,Mostly Cloudy,100,2013-07-21 14:30:00
4:00 PM,68.0,59.0,73,30.06,6.2,ESE,11.5,-,N/A,,Mostly Cloudy,110,2013-07-21 15:00:00
4:30 PM,68.0,59.0,73,30.06,6.2,ESE,11.5,-,N/A,,Mostly Cloudy,110,2013-07-21 15:30:00
5:00 PM,68.0,59.0,73,30.06,6.2,East,12.7,-,N/A,,Scattered Clouds,100,2013-07-21 16:00:00
5:30 PM,68.0,59.0,73,30.04,6.2,ESE,12.7,-,N/A,,Scattered Clouds,110,2013-07-21 16:30:00
6:00 PM,69.8,59.0,68,30.04,6.2,East,13.8,-,N/A,,Scattered Clouds,100,2013-07-21 17:00:00
6:30 PM,68.0,57.2,68,30.04,6.2,East,11.5,-,N/A,,Mostly Cloudy,90,2013-07-21 17:30:00
7:00 PM,66,57,64,30.03,9,ESE,13.4,,,,Mist,110,2013-07-21 18:00:00
7:00 PM,66.2,57.2,73,30.04,6.2,ESE,12.7,-,N/A,,Mostly Cloudy,110,2013-07-21 18:00:00
7:30 PM,66.2,57.2,73,30.04,6.2,ESE,11.5,-,N/A,,Mostly Cloudy,110,2013-07-21 18:30:00
8:00 PM,64.4,57.2,77,30.04,6.2,East,6.9,-,N/A,,Mostly Cloudy,100,2013-07-21 19:00:00
8:30 PM,64.4,57.2,77,30.04,-9999.0,East,6.9,-,N/A,,Clear,100,2013-07-21 19:30:00
9:00 PM,64.4,57.2,77,30.04,-9999.0,East,10.4,-,N/A,,Clear,90,2013-07-21 20:00:00
9:30 PM,62.6,55.4,77,30.04,-9999.0,East,11.5,-,N/A,,Clear,100,2013-07-21 20:30:00
10:00 PM,60.8,55.4,82,30.04,-9999.0,East,9.2,-,N/A,,Clear,100,2013-07-21 21:00:00
10:30 PM,60.8,55.4,82,30.04,-9999.0,ESE,9.2,-,N/A,,Clear,110,2013-07-21 21:30:00
11:00 PM,60.8,55.4,82,30.04,-9999.0,ESE,9.2,-,N/A,,Clear,110,2013-07-21 22:00:00
11:30 PM,59.0,55.4,88,30.04,-9999.0,ESE,8.1,-,N/A,,Clear,120,2013-07-21 22:30:00